Time,TemperatureF,DewpointF,PressureIn,WindDirection,WindDirectionDegrees,WindSpeedMPH,WindSpeedGustMPH,Humidity,HourlyPrecipIn,Conditions,Clouds,dailyrainin,SoftwareType,DateUTC
2013-11-12 00:23:00,33.0,32.0,-100.00,SE,130,0.0,0.0,93,1.10,,,-99.99,,2013-11-12 05:23:00,
2013-11-12 00:53:00,33.0,31.0,-100.00,SE,130,8.0,16.0,92,0.55,,,-99.99,,2013-11-12 05:53:00,
2013-11-12 01:22:00,31.0,29.0,-100.00,SE,125,11.0,17.0,93,1.69,,,-99.99,,2013-11-12 06:22:00,
2013-11-12 01:32:00,31.0,29.0,-100.00,SE,125,11.0,17.0,93,1.69,,,-99.99,,2013-11-12 06:32:00,
2013-11-12 01:52:00,30.0,28.0,-100.00,SE,135,12.0,18.0,91,0.55,,,-99.99,,2013-11-12 06:52:00,
2013-11-12 02:21:00,29.0,27.0,-100.00,SE,130,10.0,20.0,91,0.00,,,-99.99,,2013-11-12 07:21:00,
2013-11-12 02:52:00,29.0,27.0,-100.00,ESE,105,10.0,16.0,91,0.55,,,-99.99,,2013-11-12 07:52:00,
2013-11-12 03:21:00,28.0,25.0,-100.00,ESE,120,7.0,19.0,88,0.00,,,-99.99,,2013-11-12 08:21:00,
2013-11-12 03:52:00,29.0,25.0,-100.00,SE,130,7.0,12.0,87,0.00,,,-99.99,,2013-11-12 08:52:00,
2013-11-12 04:21:00,29.0,24.0,-100.00,ESE,120,11.0,17.0,83,0.00,,,-99.99,,2013-11-12 09:21:00,
2013-11-12 04:53:00,28.0,23.0,-100.00,ESE,105,12.0,19.0,79,0.00,,,-99.99,,2013-11-12 09:53:00,
2013-11-12 05:23:00,28.0,22.0,-100.00,ESE,115,11.0,16.0,77,0.00,,,-99.99,,2013-11-12 10:23:00,
2013-11-12 05:53:00,28.0,21.0,-100.00,ESE,105,12.0,17.0,75,0.00,,,-99.99,,2013-11-12 10:53:00,
2013-11-12 06:22:00,27.0,20.0,-100.00,ESE,120,10.0,14.0,76,0.00,,,-99.99,,2013-11-12 11:22:00,
2013-11-12 06:52:00,27.0,20.0,-100.00,ESE,115,7.0,14.0,74,0.00,,,-99.99,,2013-11-12 11:52:00,
2013-11-12 07:22:00,26.0,19.0,-100.00,ESE,115,6.0,11.0,75,0.00,,,-99.99,,2013-11-12 12:22:00,
2013-11-12 07:52:00,26.0,20.0,-100.00,SE,130,5.0,9.0,77,0.00,,,-99.99,,2013-11-12 12:52:00,
2013-11-12 08:22:00,28.0,21.0,-100.00,SE,125,5.0,8.0,77,0.00,,,-99.99,,2013-11-12 13:22:00,
2013-11-12 08:52:00,28.0,22.0,-100.00,East,100,9.0,16.0,75,0.00,,,-99.99,,2013-11-12 13:52:00,
2013-11-12 09:22:00,28.0,20.0,-100.00,ESE,115,8.0,12.0,71,0.00,,,-99.99,,2013-11-12 14:22:00,
2013-11-12 09:52:00,28.0,20.0,-100.00,ESE,115,7.0,11.0,71,0.00,,,-99.99,,2013-11-12 14:52:00,
2013-11-12 10:22:00,28.0,20.0,-100.00,East,90,7.0,12.0,70,0.00,,,-99.99,,2013-11-12 15:22:00,
2013-11-12 10:53:00,29.0,20.0,-100.00,ESE,120,7.0,16.0,70,0.00,,,-99.99,,2013-11-12 15:53:00,
2013-11-12 11:23:00,29.0,19.0,-100.00,ESE,105,12.0,19.0,67,0.00,,,-99.99,,2013-11-12 16:23:00,
2013-11-12 11:52:00,30.0,20.0,-100.00,SE,130,11.0,16.0,66,0.00,,,-99.99,,2013-11-12 16:52:00,
2013-11-12 12:23:00,31.0,20.0,-100.00,ESE,110,12.0,18.0,64,0.00,,,-99.99,,2013-11-12 17:23:00,
2013-11-12 12:52:00,32.0,21.0,-100.00,ESE,110,9.0,16.0,65,0.00,,,-99.99,,2013-11-12 17:52:00,
2013-11-12 13:23:00,33.0,21.0,-100.00,SE,135,9.0,16.0,63,0.00,,,-99.99,,2013-11-12 18:23:00,
2013-11-12 13:52:00,32.0,22.0,-100.00,SE,130,7.0,13.0,64,0.00,,,-99.99,,2013-11-12 18:52:00,
2013-11-12 14:22:00,32.0,21.0,-100.00,East,100,8.0,17.0,65,0.00,,,-99.99,,2013-11-12 19:22:00,
2013-11-12 14:52:00,33.0,23.0,-100.00,ESE,115,6.0,14.0,66,0.00,,,-99.99,,2013-11-12 19:52:00,
2013-11-12 15:22:00,33.0,22.0,-100.00,ESE,110,10.0,18.0,64,0.00,,,-99.99,,2013-11-12 20:22:00,
2013-11-12 15:52:00,32.0,21.0,-100.00,ESE,110,9.0,17.0,63,0.00,,,-99.99,,2013-11-12 20:52:00,
2013-11-12 16:22:00,31.0,21.0,-100.00,ESE,110,9.0,15.0,64,0.00,,,-99.99,,2013-11-12 21:22:00,
2013-11-12 16:54:00,31.0,19.0,-100.00,ESE,115,11.0,17.0,61,0.00,,,-99.99,,2013-11-12 21:54:00,
2013-11-12 17:24:00,31.0,20.0,-100.00,East,100,6.0,12.0,64,0.00,,,-99.99,,2013-11-12 22:24:00,
2013-11-12 17:54:00,31.0,20.0,-100.00,ESE,115,7.0,12.0,64,0.00,,,-99.99,,2013-11-12 22:54:00,
2013-11-12 18:23:00,31.0,21.0,-100.00,ESE,120,6.0,11.0,64,0.00,,,-99.99,,2013-11-12 23:23:00,
2013-11-12 18:53:00,31.0,18.0,-100.00,ESE,105,6.0,11.0,60,0.00,,,-99.99,,2013-11-12 23:53:00,
2013-11-12 19:22:00,30.0,18.0,-100.00,ESE,115,2.0,6.0,62,0.00,,,-99.99,,2013-11-13 00:22:00,
2013-11-12 19:52:00,29.0,19.0,-100.00,East,90,1.0,4.0,64,0.00,,,-99.99,,2013-11-13 00:52:00,
2013-11-12 20:22:00,28.0,19.0,-100.00,East,85,1.0,3.0,66,0.00,,,-99.99,,2013-11-13 01:22:00,
2013-11-12 20:52:00,28.0,19.0,-100.00,East,85,1.0,4.0,67,0.00,,,-99.99,,2013-11-13 01:52:00,
2013-11-12 21:22:00,29.0,19.0,-100.00,East,85,1.0,6.0,67,0.00,,,-99.99,,2013-11-13 02:22:00,
2013-11-12 21:52:00,29.0,20.0,-100.00,East,85,6.0,9.0,69,0.00,,,-99.99,,2013-11-13 02:52:00,
2013-11-12 22:22:00,29.0,21.0,-100.00,East,85,5.0,8.0,72,0.00,,,-99.99,,2013-11-13 03:22:00,
2013-11-12 22:54:00,28.0,21.0,-100.00,East,85,4.0,6.0,75,0.00,,,-99.99,,2013-11-13 03:54:00,
2013-11-12 23:23:00,28.0,21.0,-100.00,ENE,75,2.0,6.0,76,0.00,,,-99.99,,2013-11-13 04:23:00,
2013-11-12 23:53:00,27.0,20.0,-100.00,East,95,3.0,9.0,74,0.00,,,-99.99,,2013-11-13 04:53:00,